CW5437 Weather Reports


time (UTC)temp
F
wind
direction
speed
knots
gust
knots
rain 1hr
in
rain 24hr
in
rain mn
in
humidity
%
barometer
mb
20260506044006 51 295 0.0 0.9 0.00 0.95 0.12 99 1009.4
20260506043006 51 318 0.9 1.7 0.00 0.94 0.10 99 1009.5
20260506042020 50 340 0.9 1.7 0.00 0.92 0.07 99 1009.3
20260506041001 50 273 0.0 0.9 0.00 0.88 0.03 99 1009.3
20260506040007 50 138 1.7 3.5 0.00 0.85 0.00 99 1009.3
20260506035006 51 115 4.3 5.2 0.00 0.82 0.82 99 1009.4
20260506034001 51 115 1.7 2.6 0.00 0.80 0.80 99 1009.5
20260506031006 51 160 2.6 5.2 0.00 0.76 0.76 99 1009.6
20260506030007 51 115 4.3 5.2 0.00 0.75 0.75 99 1009.7
20260506025007 51 93 1.7 3.5 0.00 0.74 0.74 99 1009.7
20260506024002 50 115 1.7 2.6 0.00 0.73 0.73 98 1009.9
20260506023003 51 93 2.6 3.5 0.00 0.71 0.71 98 1010.1
20260506022003 51 48 0.9 0.9 0.00 0.69 0.69 98 1010.2
20260506021004 51 70 1.7 2.6 0.00 0.67 0.67 98 1010.3
20260506020006 51 318 1.7 2.6 0.00 0.63 0.63 98 1010.5
20260506015006 51 273 0.9 0.9 0.00 0.54 0.54 98 1010.9
20260506014007 51 250 0.9 2.6 0.00 0.45 0.45 98 1010.6
20260506012002 51 48 1.7 2.6 0.00 0.38 0.38 98 1010.0
20260506011003 51 70 1.7 2.6 0.00 0.36 0.36 98 1009.8
20260506005003 51 318 4.3 5.2 0.00 0.35 0.35 97 1010.3
20260506004003 51 3 2.6 3.5 0.00 0.34 0.34 97 1010.0
20260506003004 51 273 0.9 1.7 0.00 0.30 0.30 97 1010.4
20260506002005 51 318 1.7 2.6 0.00 0.29 0.29 97 1010.1
20260506001005 51 250 0.9 0.9 0.00 0.27 0.27 97 1010.2
20260506000006 51 228 1.7 2.6 0.00 0.25 0.25 97 1009.9
20260505235001 51 318 1.7 3.5 0.00 0.24 0.24 97 1010.1
20260505234008 51 318 1.7 2.6 0.00 0.21 0.21 96 1010.1
20260505233002 52 318 1.7 2.6 0.00 0.20 0.20 96 1009.8
20260505232003 52 295 1.7 3.5 0.00 0.20 0.20 96 1010.0
20260505231004 52 273 1.7 2.6 0.00 0.19 0.19 95 1009.8
20260505230005 52 318 4.3 6.1 0.00 0.18 0.18 95 1009.7
20260505225006 53 318 4.3 6.1 0.00 0.14 0.14 95 1009.6
20260505224007 54 318 3.5 5.2 0.00 0.12 0.12 95 1009.6
20260505223002 54 273 3.5 9.6 0.00 0.10 0.10 95 1009.6
20260505221002 54 273 4.3 7.0 0.00 0.10 0.10 94 1009.4
20260505220002 55 318 4.3 9.6 0.00 0.10 0.10 94 1009.4
20260505215003 55 273 4.3 7.8 0.00 0.09 0.09 93 1009.5
20260505214003 56 318 1.7 3.5 0.00 0.09 0.09 92 1009.5
20260505212003 57 318 5.2 8.7 0.00 0.03 0.03 86 1009.3
20260505211003 59 273 2.6 5.2 0.00 0.02 0.02 79 1009.0
20260505210004 61 273 4.3 7.8 0.00 0.02 0.02 74 1008.5
20260505205005 61 273 3.5 7.8 0.00 0.02 0.02 73 1008.5
20260505204006 61 340 2.6 5.2 0.00 0.02 0.02 72 1008.5
20260505203007 61 318 2.6 4.3 0.00 0.02 0.02 72 1008.4
20260505202002 62 250 1.7 4.3 0.00 0.02 0.02 71 1008.6
20260505200007 62 273 3.5 7.8 0.00 0.02 0.02 70 1008.9
20260505195002 62 295 5.2 12.2 0.00 0.02 0.02 70 1008.8
20260505194003 62 318 3.5 4.3 0.00 0.02 0.02 71 1008.8
20260505193003 61 295 4.3 7.8 0.00 0.02 0.02 71 1008.8
20260505192004 61 295 4.3 7.8 0.00 0.02 0.02 70 1008.7
20260505191004 62 273 4.3 9.6 0.00 0.02 0.02 68 1008.8
20260505190005 62 295 2.6 7.8 0.00 0.02 0.02 68 1008.7
20260505183004 68 228 8.7 12.2 0.00 0.02 0.02 54 1008.3
20260505182004 69 205 9.6 13.9 0.00 0.02 0.02 54 1008.2
20260505180004 68 250 10.4 13.9 0.00 0.02 0.02 55 1008.0
20260505175004 67 273 9.6 14.8 0.00 0.02 0.02 55 1008.0
20260505174004 67 205 13.0 18.2 0.00 0.02 0.02 55 1008.2
20260505172008 67 228 13.0 17.4 0.00 0.02 0.02 55 1008.0
20260505171002 68 228 14.8 17.4 0.00 0.02 0.02 55 1008.0
20260505170002 68 273 13.9 18.2 0.00 0.02 0.02 54 1007.8
20260505164002 69 228 9.6 13.9 0.00 0.02 0.02 58 1007.4
20260505162001 66 228 11.3 16.5 0.00 0.02 0.02 60 1007.8
20260505161002 66 228 16.5 25.2 0.00 0.02 0.02 59 1008.3
20260505153007 64 228 15.6 20.9 0.00 0.02 0.02 63 1008.3
20260505151005 64 228 17.4 26.1 0.00 0.02 0.02 64 1008.0
20260505124002 65 228 9.6 17.4 0.00 0.02 0.02 61 1006.8
20260505123002 65 228 12.2 16.5 0.00 0.02 0.02 61 1007.0
20260505122003 65 273 8.7 11.3 0.00 0.02 0.02 61 1006.8
20260505121003 65 205 15.6 20.0 0.00 0.02 0.02 61 1006.7
20260505120004 65 205 8.7 13.9 0.00 0.02 0.02 61 1006.6
20260505115003 64 228 11.3 14.8 0.00 0.02 0.02 61 1006.7
20260505113003 64 228 10.4 16.5 0.00 0.02 0.02 61 1006.4
20260505112003 64 228 8.7 14.8 0.00 0.02 0.02 61 1006.2
20260505102007 63 183 10.4 13.9 0.00 0.02 0.02 62 1005.9
20260505101015 63 205 8.7 13.0 0.00 0.02 0.02 63 1005.8
20260505100002 63 183 8.7 13.9 0.00 0.02 0.02 64 1005.8
20260505094005 63 183 7.8 10.4 0.00 0.02 0.02 65 1005.7
20260505093004 63 205 7.0 13.9 0.00 0.02 0.02 65 1005.7
20260505092004 62 205 7.0 10.4 0.00 0.02 0.02 67 1005.6
20260505091005 62 228 7.0 10.4 0.00 0.02 0.02 67 1005.6
20260505090004 62 160 5.2 7.8 0.00 0.02 0.02 67 1005.6
20260505085005 62 183 6.1 9.6 0.00 0.02 0.02 67 1005.5
20260505084005 62 183 5.2 9.6 0.00 0.02 0.02 68 1005.5
20260505083006 62 250 8.7 13.0 0.00 0.02 0.02 70 1005.5
20260505082007 61 228 7.0 10.4 0.00 0.02 0.02 71 1005.4
20260505081006 61 228 7.0 10.4 0.00 0.02 0.02 72 1005.4
20260505080006 60 228 7.0 11.3 0.00 0.02 0.02 74 1005.5
20260505075001 60 205 7.0 11.3 0.00 0.02 0.02 76 1005.3
20260505074001 60 183 4.3 7.8 0.00 0.02 0.02 76 1005.4
20260505073002 60 228 3.5 5.2 0.00 0.02 0.02 76 1005.4
20260505072002 60 160 5.2 7.8 0.00 0.02 0.02 73 1005.5
20260505071003 61 250 10.4 14.8 0.00 0.02 0.02 71 1005.4
20260505065002 64 228 18.2 29.5 0.00 0.02 0.02 59 1006.2
20260505064003 64 205 13.9 19.1 0.00 0.02 0.02 61 1006.0
20260505063003 64 205 7.8 10.4 0.00 0.02 0.02 62 1006.0
20260505062004 64 205 8.7 12.2 0.00 0.02 0.02 62 1005.8
20260505061005 63 250 11.3 17.4 0.00 0.02 0.02 62 1005.7
20260505060005 64 228 7.8 13.0 0.00 0.02 0.02 62 1005.9
20260505055006 63 205 7.8 11.3 0.00 0.02 0.02 64 1006.1
20260505054001 63 250 5.2 7.8 0.00 0.02 0.02 64 1006.1
20260505053002 62 228 3.5 6.1 0.00 0.02 0.02 66 1006.2
20260505051002 63 318 1.7 3.5 0.00 0.02 0.02 65 1006.4